TimeCDT,TemperatureF,Dew PointF,Humidity,Sea Level PressureIn,VisibilityMPH,Wind Direction,Wind SpeedMPH,Gust SpeedMPH,PrecipitationIn,Events,Conditions,WindDirDegrees,DateUTC
12:15 AM,55.4,52.9,91,29.92,10.0,Calm,Calm,-,N/A,,Overcast,0,2013-06-12 05:15:00
12:35 AM,55.0,53.1,93,29.92,10.0,Calm,Calm,-,N/A,,Mostly Cloudy,0,2013-06-12 05:35:00
12:55 AM,54.9,52.9,93,29.92,10.0,Calm,Calm,-,N/A,,Clear,0,2013-06-12 05:55:00
1:15 AM,54.9,52.9,93,29.92,10.0,Calm,Calm,-,N/A,,Clear,0,2013-06-12 06:15:00
1:35 AM,54.9,52.7,92,29.93,10.0,Calm,Calm,-,N/A,,Clear,0,2013-06-12 06:35:00
1:55 AM,54.5,52.5,93,29.92,10.0,Calm,Calm,-,N/A,,Mostly Cloudy,0,2013-06-12 06:55:00
2:15 AM,54.7,52.7,93,29.90,10.0,ENE,3.5,-,N/A,,Scattered Clouds,70,2013-06-12 07:15:00
2:35 AM,53.4,51.1,92,29.92,10.0,Calm,Calm,-,N/A,,Clear,0,2013-06-12 07:35:00
2:55 AM,51.8,50.0,94,29.92,10.0,Calm,Calm,-,N/A,,Clear,0,2013-06-12 07:55:00
3:15 AM,52.2,50.9,95,29.92,10.0,Calm,Calm,-,N/A,,Scattered Clouds,0,2013-06-12 08:15:00
3:35 AM,52.2,50.5,94,29.92,10.0,Calm,Calm,-,N/A,,Scattered Clouds,0,2013-06-12 08:35:00
3:55 AM,52.0,50.5,95,29.91,10.0,Calm,Calm,-,N/A,,Clear,0,2013-06-12 08:55:00
4:15 AM,52.7,51.3,95,29.92,10.0,Calm,Calm,-,N/A,,Scattered Clouds,0,2013-06-12 09:15:00
4:35 AM,51.8,50.4,95,29.95,10.0,Calm,Calm,-,N/A,,Mostly Cloudy,0,2013-06-12 09:35:00
4:55 AM,54.7,51.8,90,29.95,10.0,Calm,Calm,-,N/A,,Overcast,0,2013-06-12 09:55:00
5:15 AM,53.1,50.9,92,29.92,10.0,Calm,Calm,-,N/A,,Scattered Clouds,0,2013-06-12 10:15:00
5:35 AM,53.1,51.1,93,29.92,10.0,Calm,Calm,-,N/A,,Clear,0,2013-06-12 10:35:00
5:55 AM,53.8,51.8,93,29.91,10.0,ENE,3.5,-,N/A,,Clear,70,2013-06-12 10:55:00
6:15 AM,55.6,52.0,88,29.91,10.0,Calm,Calm,-,N/A,,Scattered Clouds,0,2013-06-12 11:15:00
6:35 AM,59.2,53.6,82,29.90,10.0,East,4.6,-,N/A,,Mostly Cloudy,80,2013-06-12 11:35:00
6:55 AM,59.4,53.1,80,29.90,10.0,East,3.5,-,N/A,,Scattered Clouds,90,2013-06-12 11:55:00
7:15 AM,60.1,54.3,81,29.91,10.0,Calm,Calm,-,N/A,,Scattered Clouds,0,2013-06-12 12:15:00
7:35 AM,60.8,55.0,81,29.92,10.0,Calm,Calm,-,N/A,,Mostly Cloudy,0,2013-06-12 12:35:00
7:55 AM,61.5,55.9,82,29.92,10.0,Calm,Calm,-,N/A,,Mostly Cloudy,0,2013-06-12 12:55:00
8:15 AM,63.0,55.9,78,29.93,10.0,Calm,Calm,-,N/A,,Mostly Cloudy,0,2013-06-12 13:15:00
8:35 AM,64.8,56.3,74,29.92,10.0,Calm,Calm,-,N/A,,Mostly Cloudy,0,2013-06-12 13:35:00
8:55 AM,68.4,57.4,68,29.91,10.0,SE,3.5,-,N/A,,Mostly Cloudy,130,2013-06-12 13:55:00
9:15 AM,68.9,57.0,66,29.90,10.0,SE,3.5,-,N/A,,Mostly Cloudy,130,2013-06-12 14:15:00
9:35 AM,70.0,56.5,62,29.89,10.0,ESE,3.5,-,N/A,,Scattered Clouds,110,2013-06-12 14:35:00
9:55 AM,70.9,55.8,59,29.89,10.0,Calm,Calm,-,N/A,,Scattered Clouds,0,2013-06-12 14:55:00
10:15 AM,71.6,54.1,54,29.89,10.0,East,4.6,-,N/A,,Scattered Clouds,100,2013-06-12 15:15:00
10:35 AM,72.1,54.1,53,29.88,10.0,SSE,4.6,-,N/A,,Clear,150,2013-06-12 15:35:00
10:55 AM,71.6,51.3,49,29.88,10.0,ESE,4.6,-,N/A,,Clear,120,2013-06-12 15:55:00
11:15 AM,73.6,50.9,45,29.88,10.0,East,6.9,-,N/A,,Scattered Clouds,90,2013-06-12 16:15:00
11:35 AM,73.4,50.2,44,29.88,10.0,Calm,Calm,-,N/A,,Scattered Clouds,0,2013-06-12 16:35:00
11:55 AM,75.2,50.7,42,29.88,10.0,NE,4.6,-,N/A,,Clear,50,2013-06-12 16:55:00
12:15 PM,75.0,50.0,41,29.87,10.0,Calm,Calm,-,N/A,,Clear,0,2013-06-12 17:15:00
12:35 PM,75.2,50.0,41,29.87,10.0,Calm,Calm,-,N/A,,Clear,0,2013-06-12 17:35:00
12:55 PM,75.9,52.7,44,29.86,10.0,SE,3.5,-,N/A,,Clear,130,2013-06-12 17:55:00
1:15 PM,76.3,51.1,41,29.86,10.0,East,3.5,-,N/A,,Clear,80,2013-06-12 18:15:00
1:55 PM,73.6,52.3,47,29.85,10.0,Calm,Calm,-,N/A,,Overcast,0,2013-06-12 18:55:00
2:15 PM,70.7,55.2,58,29.85,10.0,SSE,3.5,-,N/A,,Overcast,160,2013-06-12 19:15:00
2:35 PM,68.0,57.9,70,29.86,7.0,South,4.6,-,N/A,Rain,Light Rain,190,2013-06-12 19:35:00
3:15 PM,64.6,57.2,77,29.87,10.0,South,3.5,-,N/A,Rain,Rain,190,2013-06-12 20:15:00
3:35 PM,63.3,57.4,81,29.86,7.0,Calm,Calm,-,N/A,Rain,Rain,0,2013-06-12 20:35:00
3:55 PM,61.9,58.3,88,29.86,10.0,South,3.5,-,N/A,Rain,Light Rain,190,2013-06-12 20:55:00
4:15 PM,61.5,57.9,88,29.83,10.0,SSE,3.5,-,N/A,,Mostly Cloudy,150,2013-06-12 21:15:00
4:35 PM,61.7,58.3,89,29.83,10.0,Calm,Calm,-,N/A,Rain,Light Rain,0,2013-06-12 21:35:00
4:55 PM,62.2,58.1,86,29.84,10.0,Calm,Calm,-,N/A,,Overcast,0,2013-06-12 21:55:00
5:15 PM,61.9,58.3,88,29.84,10.0,Calm,Calm,-,N/A,Rain,Rain,0,2013-06-12 22:15:00
5:35 PM,62.6,59.4,89,29.80,10.0,East,3.5,-,N/A,Rain,Rain,80,2013-06-12 22:35:00
5:55 PM,64.6,60.1,85,29.79,10.0,ENE,3.5,-,N/A,,Scattered Clouds,60,2013-06-12 22:55:00
6:15 PM,64.0,58.8,83,29.78,10.0,NE,3.5,-,N/A,,Clear,50,2013-06-12 23:15:00
6:35 PM,64.8,58.5,80,29.80,10.0,NNE,3.5,-,N/A,,Clear,30,2013-06-12 23:35:00
6:55 PM,63.9,59.4,85,29.80,10.0,Calm,Calm,-,N/A,,Clear,0,2013-06-12 23:55:00
7:15 PM,64.8,58.5,80,29.81,10.0,Calm,Calm,-,N/A,,Clear,0,2013-06-13 00:15:00
7:35 PM,63.3,58.1,83,29.82,10.0,Calm,Calm,-,N/A,,Clear,0,2013-06-13 00:35:00
7:55 PM,62.1,58.1,87,29.83,10.0,Calm,Calm,-,N/A,,Scattered Clouds,0,2013-06-13 00:55:00
8:15 PM,60.8,58.1,91,29.83,10.0,Calm,Calm,-,N/A,,Scattered Clouds,0,2013-06-13 01:15:00
8:35 PM,59.9,57.9,93,29.83,7.0,Calm,Calm,-,N/A,,Clear,0,2013-06-13 01:35:00
8:55 PM,58.5,56.7,94,29.83,5.0,Calm,Calm,-,N/A,,Clear,0,2013-06-13 01:55:00
9:15 PM,57.7,56.3,95,29.85,4.0,Calm,Calm,-,N/A,,Clear,0,2013-06-13 02:15:00
9:35 PM,57.9,56.5,95,29.86,7.0,Calm,Calm,-,N/A,,Clear,0,2013-06-13 02:35:00
9:55 PM,57.7,56.5,96,29.86,7.0,Calm,Calm,-,N/A,,Mostly Cloudy,0,2013-06-13 02:55:00
10:15 PM,58.1,56.8,96,29.85,5.0,Calm,Calm,-,N/A,,Overcast,0,2013-06-13 03:15:00
10:35 PM,57.4,56.3,96,29.85,4.0,Calm,Calm,-,N/A,,Scattered Clouds,0,2013-06-13 03:35:00
10:55 PM,55.2,54.0,96,29.84,1.8,Calm,Calm,-,N/A,,Mist,0,2013-06-13 03:55:00
11:15 PM,54.0,52.9,96,29.85,0.2,Calm,Calm,-,N/A,Fog,Fog,0,2013-06-13 04:15:00
11:35 PM,52.9,51.8,96,29.85,0.5,Calm,Calm,-,N/A,Fog,Fog,0,2013-06-13 04:35:00
11:55 PM,55.2,54.0,96,29.86,10.0,Calm,Calm,-,N/A,,Clear,0,2013-06-13 04:55:00